Time,TemperatureF,DewpointF,PressureIn,WindDirection,WindDirectionDegrees,WindSpeedMPH,WindSpeedGustMPH,Humidity,HourlyPrecipIn,Conditions,Clouds,dailyrainin,SoftwareType,DateUTC
2013-06-20 00:03:00,74.2,68.3,29.95,SE,130,1.0,3.0,82,0.00,RA,SKC,0.00,WeatherDisplay:10.37,2013-06-20 05:03:00,
2013-06-20 00:08:00,74.1,68.6,29.95,SE,132,0.0,2.0,83,0.00,CLR,SKC,0.00,WeatherDisplay:10.37,2013-06-20 05:08:00,
2013-06-20 00:13:00,74.0,68.5,29.95,SE,136,0.0,2.0,83,0.00,CLR,SKC,0.00,WeatherDisplay:10.37,2013-06-20 05:13:00,
2013-06-20 00:18:00,74.0,68.5,29.95,SE,138,0.0,3.0,83,0.00,CLR,SKC,0.00,WeatherDisplay:10.37,2013-06-20 05:18:00,
2013-06-20 00:23:00,73.9,68.8,29.95,SE,131,0.0,5.0,84,0.00,CLR,SKC,0.00,WeatherDisplay:10.37,2013-06-20 05:23:00,
2013-06-20 00:28:00,73.9,68.8,29.95,SE,136,0.0,5.0,84,0.00,CLR,SKC,0.00,WeatherDisplay:10.37,2013-06-20 05:28:00,
2013-06-20 00:33:00,73.8,68.7,29.94,SE,136,0.0,5.0,84,0.00,CLR,SKC,0.00,WeatherDisplay:10.37,2013-06-20 05:33:00,
2013-06-20 00:38:00,73.7,68.5,29.94,SE,138,0.0,2.0,84,0.00,CLR,SKC,0.00,WeatherDisplay:10.37,2013-06-20 05:38:00,
2013-06-20 00:48:00,73.4,68.6,29.94,SSE,150,0.0,2.0,85,0.00,CLR,SKC,0.00,WeatherDisplay:10.37,2013-06-20 05:48:00,
2013-06-20 00:53:00,73.3,68.9,29.94,SE,132,0.0,3.0,86,0.00,CLR,SKC,0.00,WeatherDisplay:10.37,2013-06-20 05:53:00,
2013-06-20 00:58:00,73.3,68.9,29.94,SSW,208,1.0,5.0,86,0.00,CLR,SKC,0.00,WeatherDisplay:10.37,2013-06-20 05:58:00,
2013-06-20 01:03:00,73.2,68.8,29.94,SSW,208,0.0,3.0,86,0.00,CLR,SKC,0.00,WeatherDisplay:10.37,2013-06-20 06:03:00,
2013-06-20 01:08:00,73.1,68.7,29.93,South,174,0.0,3.0,86,0.00,CLR,SKC,0.00,WeatherDisplay:10.37,2013-06-20 06:08:00,
2013-06-20 01:13:00,73.1,68.7,29.94,SSE,151,0.0,3.0,86,0.00,CLR,SKC,0.00,WeatherDisplay:10.37,2013-06-20 06:13:00,
2013-06-20 01:18:00,73.0,68.6,29.94,SSE,148,0.0,0.0,86,0.00,CLR,SKC,0.00,WeatherDisplay:10.37,2013-06-20 06:18:00,
2013-06-20 01:23:00,73.0,68.6,29.94,SSE,149,1.0,3.0,86,0.00,CLR,SKC,0.00,WeatherDisplay:10.37,2013-06-20 06:23:00,
2013-06-20 01:28:00,73.0,68.5,29.94,SSE,154,0.0,5.0,86,0.00,CLR,SKC,0.00,WeatherDisplay:10.37,2013-06-20 06:28:00,
2013-06-20 01:38:00,72.8,68.7,29.94,South,185,1.0,5.0,87,0.00,CLR,SKC,0.00,WeatherDisplay:10.37,2013-06-20 06:38:00,
2013-06-20 01:43:00,72.7,68.6,29.94,South,177,0.0,3.0,87,0.00,CLR,SKC,0.00,WeatherDisplay:10.37,2013-06-20 06:43:00,
2013-06-20 01:48:00,72.7,68.6,29.94,SSE,148,2.0,5.0,87,0.00,CLR,SKC,0.00,WeatherDisplay:10.37,2013-06-20 06:48:00,
2013-06-20 01:53:00,72.6,68.5,29.94,SSE,161,0.0,3.0,87,0.00,CLR,SKC,0.00,WeatherDisplay:10.37,2013-06-20 06:53:00,
2013-06-20 01:58:00,72.6,68.9,29.94,SSE,160,2.0,7.0,88,0.00,CLR,SKC,0.00,WeatherDisplay:10.37,2013-06-20 06:58:00,
2013-06-20 02:03:00,72.5,68.8,29.93,SSE,157,0.0,5.0,88,0.00,CLR,SKC,0.00,WeatherDisplay:10.37,2013-06-20 07:03:00,
2013-06-20 02:08:00,72.5,68.8,29.93,SSE,155,1.0,3.0,88,0.00,CLR,SKC,0.00,WeatherDisplay:10.37,2013-06-20 07:08:00,
2013-06-20 02:13:00,72.4,68.7,29.93,SSE,151,0.0,3.0,88,0.00,CLR,SKC,0.00,WeatherDisplay:10.37,2013-06-20 07:13:00,
2013-06-20 02:18:00,72.3,68.6,29.93,South,171,1.0,3.0,88,0.00,CLR,SKC,0.00,WeatherDisplay:10.37,2013-06-20 07:18:00,
2013-06-20 02:23:00,72.2,68.5,29.93,South,186,0.0,3.0,88,0.00,CLR,SKC,0.00,WeatherDisplay:10.37,2013-06-20 07:23:00,
2013-06-20 02:28:00,72.1,68.7,29.94,SSW,200,0.0,2.0,89,0.00,CLR,SKC,0.00,WeatherDisplay:10.37,2013-06-20 07:28:00,
2013-06-20 02:33:00,71.9,68.5,29.93,SSW,194,1.0,2.0,89,0.00,CLR,SKC,0.00,WeatherDisplay:10.37,2013-06-20 07:33:00,
2013-06-20 02:38:00,71.8,68.4,29.93,SE,144,0.0,1.0,89,0.00,CLR,SKC,0.00,WeatherDisplay:10.37,2013-06-20 07:38:00,
2013-06-20 02:43:00,71.7,68.3,29.94,SSE,147,0.0,5.0,89,0.00,CLR,SKC,0.00,WeatherDisplay:10.37,2013-06-20 07:43:00,
2013-06-20 02:48:00,71.6,68.5,29.93,SSE,150,0.0,3.0,90,0.00,CLR,SKC,0.00,WeatherDisplay:10.37,2013-06-20 07:48:00,
2013-06-20 02:53:00,71.5,68.4,29.93,SE,141,0.0,2.0,90,0.00,CLR,SKC,0.00,WeatherDisplay:10.37,2013-06-20 07:53:00,
2013-06-20 02:58:00,71.4,68.3,29.93,SE,135,1.0,5.0,90,0.00,CLR,SKC,0.00,WeatherDisplay:10.37,2013-06-20 07:58:00,
2013-06-20 03:03:00,71.3,68.3,29.93,SSE,165,0.0,3.0,90,0.00,CLR,SKC,0.00,WeatherDisplay:10.37,2013-06-20 08:03:00,
2013-06-20 03:08:00,71.2,68.1,29.93,South,181,0.0,1.0,90,0.00,CLR,SKC,0.00,WeatherDisplay:10.37,2013-06-20 08:08:00,
2013-06-20 03:18:00,71.0,68.3,29.93,SSW,193,0.0,2.0,91,0.00,CLR,SKC,0.00,WeatherDisplay:10.37,2013-06-20 08:18:00,
2013-06-20 03:23:00,70.9,68.1,29.93,ESE,122,0.0,0.0,91,0.00,CLR,SKC,0.00,WeatherDisplay:10.37,2013-06-20 08:23:00,
2013-06-20 03:28:00,70.7,68.0,29.93,ESE,120,0.0,0.0,91,0.00,CLR,SKC,0.00,WeatherDisplay:10.37,2013-06-20 08:28:00,
2013-06-20 03:33:00,70.5,67.8,29.93,ESE,120,0.0,2.0,91,0.00,CLR,SKC,0.00,WeatherDisplay:10.37,2013-06-20 08:33:00,
2013-06-20 03:38:00,70.4,68.0,29.93,ESE,116,0.0,2.0,92,0.00,CLR,SKC,0.00,WeatherDisplay:10.37,2013-06-20 08:38:00,
2013-06-20 03:43:00,70.2,67.8,29.93,ESE,121,0.0,2.0,92,0.00,CLR,SKC,0.00,WeatherDisplay:10.37,2013-06-20 08:43:00,
2013-06-20 03:48:00,70.1,67.7,29.94,SE,130,0.0,2.0,92,0.00,CLR,SKC,0.00,WeatherDisplay:10.37,2013-06-20 08:48:00,
2013-06-20 03:53:00,70.1,68.0,29.93,SE,127,0.0,2.0,93,0.00,CLR,SKC,0.00,WeatherDisplay:10.37,2013-06-20 08:53:00,
2013-06-20 03:58:00,70.0,67.9,29.94,SE,125,0.0,2.0,93,0.00,CLR,SKC,0.00,WeatherDisplay:10.37,2013-06-20 08:58:00,
2013-06-20 04:03:00,69.9,67.8,29.93,SE,132,0.0,0.0,93,0.00,CLR,SKC,0.00,WeatherDisplay:10.37,2013-06-20 09:03:00,
2013-06-20 04:08:00,69.9,67.8,29.93,SE,143,0.0,0.0,93,0.00,CLR,SKC,0.00,WeatherDisplay:10.37,2013-06-20 09:08:00,
2013-06-20 04:13:00,69.7,67.6,29.93,SSE,148,0.0,0.0,93,0.00,CLR,SKC,0.00,WeatherDisplay:10.37,2013-06-20 09:13:00,
2013-06-20 04:18:00,69.6,67.5,29.93,SSE,147,0.0,0.0,93,0.00,CLR,SKC,0.00,WeatherDisplay:10.37,2013-06-20 09:18:00,
2013-06-20 04:23:00,69.5,67.4,29.93,SE,146,0.0,0.0,93,0.00,CLR,SKC,0.00,WeatherDisplay:10.37,2013-06-20 09:23:00,
2013-06-20 04:28:00,69.4,67.5,29.93,SE,144,0.0,3.0,94,0.00,CLR,SKC,0.00,WeatherDisplay:10.37,2013-06-20 09:28:00,
2013-06-20 04:33:00,69.3,67.5,29.93,SSE,149,0.0,3.0,94,0.00,CLR,SKC,0.00,WeatherDisplay:10.37,2013-06-20 09:33:00,
2013-06-20 04:38:00,69.3,67.5,29.93,SE,146,0.0,2.0,94,0.00,CLR,SKC,0.00,WeatherDisplay:10.37,2013-06-20 09:38:00,
2013-06-20 04:43:00,69.3,67.5,29.93,SE,128,0.0,2.0,94,0.00,CLR,SKC,0.00,WeatherDisplay:10.37,2013-06-20 09:43:00,
2013-06-20 04:48:00,69.4,67.6,29.93,ESE,115,0.0,2.0,94,0.00,CLR,SKC,0.00,WeatherDisplay:10.37,2013-06-20 09:48:00,
2013-06-20 04:53:00,69.4,67.3,29.93,SE,134,0.0,2.0,93,0.00,CLR,SKC,0.00,WeatherDisplay:10.37,2013-06-20 09:53:00,
2013-06-20 04:58:00,69.4,67.3,29.93,SE,145,0.0,0.0,93,0.00,CLR,SKC,0.00,WeatherDisplay:10.37,2013-06-20 09:58:00,
2013-06-20 05:03:00,69.5,67.4,29.93,SSE,167,1.0,7.0,93,0.00,CLR,SKC,0.00,WeatherDisplay:10.37,2013-06-20 10:03:00,
2013-06-20 05:08:00,69.5,67.4,29.93,South,175,0.0,2.0,93,0.00,CLR,SKC,0.00,WeatherDisplay:10.37,2013-06-20 10:08:00,
2013-06-20 05:13:00,69.5,67.4,29.93,SSE,153,1.0,6.0,93,0.00,CLR,SKC,0.00,WeatherDisplay:10.37,2013-06-20 10:13:00,
2013-06-20 05:18:00,69.5,67.4,29.93,SSE,154,0.0,8.0,93,0.00,CLR,SKC,0.00,WeatherDisplay:10.37,2013-06-20 10:18:00,
2013-06-20 05:23:00,69.5,67.4,29.93,SSE,155,0.0,8.0,93,0.00,CLR,SKC,0.00,WeatherDisplay:10.37,2013-06-20 10:23:00,
2013-06-20 05:28:00,69.5,67.4,29.93,SSE,149,0.0,2.0,93,0.00,CLR,SKC,0.00,WeatherDisplay:10.37,2013-06-20 10:28:00,
2013-06-20 05:38:00,69.4,67.3,29.93,SE,139,1.0,5.0,93,0.00,CLR,SKC,0.00,WeatherDisplay:10.37,2013-06-20 10:38:00,
2013-06-20 05:43:00,69.4,67.3,29.94,SE,141,1.0,5.0,93,0.00,CLR,SKC,0.00,WeatherDisplay:10.37,2013-06-20 10:43:00,
2013-06-20 05:48:00,69.4,67.3,29.94,SE,141,0.0,3.0,93,0.00,CLR,SKC,0.00,WeatherDisplay:10.37,2013-06-20 10:48:00,
2013-06-20 05:53:00,69.3,67.2,29.93,SE,136,0.0,3.0,93,0.00,CLR,SKC,0.00,WeatherDisplay:10.37,2013-06-20 10:53:00,
2013-06-20 05:58:00,69.3,67.2,29.93,SE,144,0.0,5.0,93,0.00,CLR,SKC,0.00,WeatherDisplay:10.37,2013-06-20 10:58:00,
2013-06-20 06:08:00,69.3,67.2,29.94,South,183,1.0,3.0,93,0.00,CLR,SKC,0.00,WeatherDisplay:10.37,2013-06-20 11:08:00,
2013-06-20 06:13:00,69.4,67.0,29.94,SE,141,0.0,5.0,92,0.00,CLR,SKC,0.00,WeatherDisplay:10.37,2013-06-20 11:13:00,
2013-06-20 06:18:00,69.6,67.2,29.94,SE,124,1.0,8.0,92,0.00,CLR,SKC,0.00,WeatherDisplay:10.37,2013-06-20 11:18:00,
2013-06-20 06:28:00,69.8,67.1,29.94,SSE,166,0.0,3.0,91,0.00,CLR,SKC,0.00,WeatherDisplay:10.37,2013-06-20 11:28:00,
2013-06-20 06:33:00,69.9,67.2,29.94,South,171,1.0,5.0,91,0.00,CLR,SKC,0.00,WeatherDisplay:10.37,2013-06-20 11:33:00,
2013-06-20 06:38:00,69.9,67.2,29.94,South,189,1.0,3.0,91,0.00,CLR,SKC,0.00,WeatherDisplay:10.37,2013-06-20 11:38:00,
2013-06-20 06:43:00,70.1,67.4,29.94,South,180,1.0,5.0,91,0.00,CLR,SKC,0.00,WeatherDisplay:10.37,2013-06-20 11:43:00,
2013-06-20 06:48:00,70.2,67.1,29.94,South,175,1.0,3.0,90,0.00,CLR,SKC,0.00,WeatherDisplay:10.37,2013-06-20 11:48:00,
2013-06-20 06:53:00,70.3,67.2,29.95,SSE,157,1.0,7.0,90,0.00,CLR,SKC,0.00,WeatherDisplay:10.37,2013-06-20 11:53:00,
2013-06-20 06:58:00,70.5,67.4,29.95,SE,140,2.0,10.0,90,0.00,CLR,SKC,0.00,WeatherDisplay:10.37,2013-06-20 11:58:00,
2013-06-20 07:03:00,70.7,67.3,29.95,SSE,162,1.0,9.0,89,0.00,CLR,SKC,0.00,WeatherDisplay:10.37,2013-06-20 12:03:00,
2013-06-20 07:08:00,70.8,67.4,29.95,SSE,153,1.0,6.0,89,0.00,CLR,SKC,0.00,WeatherDisplay:10.37,2013-06-20 12:08:00,
2013-06-20 07:13:00,71.0,67.3,29.95,SSE,157,2.0,8.0,88,0.00,CLR,SKC,0.00,WeatherDisplay:10.37,2013-06-20 12:13:00,
2013-06-20 07:18:00,71.2,67.5,29.95,South,169,2.0,11.0,88,0.00,CLR,SKC,0.00,WeatherDisplay:10.37,2013-06-20 12:18:00,
2013-06-20 07:23:00,71.3,67.6,29.95,SSE,159,2.0,5.0,88,0.00,CLR,SKC,0.00,WeatherDisplay:10.37,2013-06-20 12:23:00,
2013-06-20 07:28:00,71.5,67.4,29.95,South,187,5.0,8.0,87,0.00,CLR,SKC,0.00,WeatherDisplay:10.37,2013-06-20 12:28:00,
2013-06-20 07:33:00,71.8,67.8,29.95,SSE,167,1.0,5.0,87,0.00,CLR,SKC,0.00,WeatherDisplay:10.37,2013-06-20 12:33:00,
2013-06-20 07:38:00,72.2,67.7,29.95,SSE,149,2.0,7.0,86,0.00,CLR,SKC,0.00,WeatherDisplay:10.37,2013-06-20 12:38:00,
2013-06-20 07:43:00,72.4,67.9,29.96,SSE,148,2.0,7.0,86,0.00,CLR,SKC,0.00,WeatherDisplay:10.37,2013-06-20 12:43:00,
2013-06-20 07:48:00,72.6,67.8,29.96,South,175,3.0,10.0,85,0.00,CLR,SKC,0.00,WeatherDisplay:10.37,2013-06-20 12:48:00,
2013-06-20 07:53:00,72.9,67.8,29.96,SSE,168,2.0,8.0,84,0.00,CLR,SKC,0.00,WeatherDisplay:10.37,2013-06-20 12:53:00,
2013-06-20 07:58:00,73.3,68.2,29.96,South,169,2.0,8.0,84,0.00,CLR,SKC,0.00,WeatherDisplay:10.37,2013-06-20 12:58:00,
2013-06-20 08:08:00,74.6,68.8,29.96,South,177,5.0,10.0,82,0.00,CLR,SKC,0.00,WeatherDisplay:10.37,2013-06-20 13:08:00,
2013-06-20 08:13:00,74.9,68.7,29.96,SSW,198,5.0,18.0,81,0.00,CLR,SKC,0.00,WeatherDisplay:10.37,2013-06-20 13:13:00,
2013-06-20 08:23:00,75.4,68.8,29.96,SSE,158,6.0,10.0,80,0.00,CLR,SKC,0.00,WeatherDisplay:10.37,2013-06-20 13:23:00,
2013-06-20 08:28:00,76.2,69.2,29.96,South,171,7.0,15.0,79,0.00,CLR,SKC,0.00,WeatherDisplay:10.37,2013-06-20 13:28:00,
2013-06-20 08:33:00,76.8,69.8,29.96,SSE,150,1.0,8.0,79,0.00,CLR,SKC,0.00,WeatherDisplay:10.37,2013-06-20 13:33:00,
2013-06-20 08:38:00,76.9,69.1,29.96,South,180,3.0,16.0,77,0.00,CLR,SKC,0.00,WeatherDisplay:10.37,2013-06-20 13:38:00,
2013-06-20 08:43:00,76.9,69.5,29.96,SSW,206,6.0,13.0,78,0.00,CLR,SKC,0.00,WeatherDisplay:10.37,2013-06-20 13:43:00,
2013-06-20 08:48:00,77.4,69.6,29.96,SSW,205,5.0,15.0,77,0.00,CLR,SKC,0.00,WeatherDisplay:10.37,2013-06-20 13:48:00,
2013-06-20 08:58:00,78.2,70.0,29.96,SSW,199,6.0,10.0,76,0.00,CLR,SKC,0.00,WeatherDisplay:10.37,2013-06-20 13:58:00,
2013-06-20 09:03:00,78.6,69.6,29.96,SSW,193,7.0,15.0,74,0.00,CLR,SKC,0.00,WeatherDisplay:10.37,2013-06-20 14:03:00,
2013-06-20 09:08:00,78.7,69.7,29.96,SSW,192,7.0,13.0,74,0.00,CLR,SKC,0.00,WeatherDisplay:10.37,2013-06-20 14:08:00,
2013-06-20 09:18:00,79.0,70.0,29.95,South,176,7.0,16.0,74,0.00,CLR,SKC,0.00,WeatherDisplay:10.37,2013-06-20 14:18:00,
2013-06-20 09:28:00,79.5,70.5,29.95,South,175,6.0,15.0,74,0.00,CLR,SKC,0.00,WeatherDisplay:10.37,2013-06-20 14:28:00,
2013-06-20 09:33:00,79.9,70.4,29.95,South,186,9.0,20.0,73,0.00,CLR,SKC,0.00,WeatherDisplay:10.37,2013-06-20 14:33:00,
2013-06-20 09:38:00,80.1,71.1,29.96,SSW,192,3.0,10.0,74,0.00,CLR,SKC,0.00,WeatherDisplay:10.37,2013-06-20 14:38:00,
2013-06-20 09:48:00,80.7,71.2,29.96,South,171,8.0,16.0,73,0.00,CLR,SKC,0.00,WeatherDisplay:10.37,2013-06-20 14:48:00,
2013-06-20 09:53:00,81.0,71.9,29.95,South,187,2.0,15.0,74,0.00,CLR,SKC,0.00,WeatherDisplay:10.37,2013-06-20 14:53:00,
2013-06-20 09:58:00,81.2,70.9,29.95,SSW,192,10.0,21.0,71,0.00,CLR,SKC,0.00,WeatherDisplay:10.37,2013-06-20 14:58:00,
2013-06-20 10:03:00,81.1,71.6,29.95,SSE,157,6.0,20.0,73,0.00,CLR,SKC,0.00,WeatherDisplay:10.37,2013-06-20 15:03:00,
2013-06-20 10:08:00,81.5,72.0,29.95,South,175,5.0,16.0,73,0.00,CLR,SKC,0.00,WeatherDisplay:10.37,2013-06-20 15:08:00,
2013-06-20 10:13:00,81.8,71.9,29.95,South,184,6.0,18.0,72,0.00,CLR,SKC,0.00,WeatherDisplay:10.37,2013-06-20 15:13:00,
2013-06-20 10:18:00,82.0,71.6,29.95,SSW,199,6.0,17.0,71,0.00,CLR,SKC,0.00,WeatherDisplay:10.37,2013-06-20 15:18:00,
2013-06-20 10:23:00,82.3,72.0,29.95,SSW,206,9.0,18.0,71,0.00,CLR,SKC,0.00,WeatherDisplay:10.37,2013-06-20 15:23:00,
2013-06-20 10:28:00,82.2,71.9,29.94,SSW,199,8.0,20.0,71,0.00,CLR,SKC,0.00,WeatherDisplay:10.37,2013-06-20 15:28:00,
2013-06-20 10:33:00,82.3,71.6,29.95,South,179,9.0,20.0,70,0.00,CLR,SKC,0.00,WeatherDisplay:10.37,2013-06-20 15:33:00,
2013-06-20 10:38:00,82.0,71.6,29.95,South,173,9.0,21.0,71,0.00,CLR,SKC,0.00,WeatherDisplay:10.37,2013-06-20 15:38:00,
2013-06-20 10:43:00,81.9,71.6,29.95,SSW,197,9.0,18.0,71,0.00,CLR,SKC,0.00,WeatherDisplay:10.37,2013-06-20 15:43:00,
2013-06-20 10:48:00,82.1,72.2,29.94,SSW,199,6.0,16.0,72,0.00,CLR,SKC,0.00,WeatherDisplay:10.37,2013-06-20 15:48:00,
2013-06-20 10:53:00,82.2,71.9,29.94,South,173,7.0,16.0,71,0.00,CLR,SKC,0.00,WeatherDisplay:10.37,2013-06-20 15:53:00,
2013-06-20 11:03:00,82.4,72.5,29.94,South,180,9.0,21.0,72,0.00,CLR,SKC,0.00,WeatherDisplay:10.37,2013-06-20 16:03:00,
2013-06-20 11:13:00,83.2,72.8,29.94,SSW,199,8.0,18.0,71,0.00,CLR,SKC,0.00,WeatherDisplay:10.37,2013-06-20 16:13:00,
2013-06-20 11:18:00,83.6,73.2,29.93,South,180,9.0,16.0,71,0.00,CLR,SKC,0.00,WeatherDisplay:10.37,2013-06-20 16:18:00,
2013-06-20 11:23:00,83.7,72.9,29.93,South,180,13.0,21.0,70,0.00,CLR,SKC,0.00,WeatherDisplay:10.37,2013-06-20 16:23:00,
2013-06-20 11:33:00,83.7,72.9,29.93,South,169,7.0,22.0,70,0.00,CLR,SKC,0.00,WeatherDisplay:10.37,2013-06-20 16:33:00,
2013-06-20 11:38:00,84.1,73.3,29.93,SSE,152,5.0,20.0,70,0.00,CLR,SKC,0.00,WeatherDisplay:10.37,2013-06-20 16:38:00,
2013-06-20 11:43:00,84.4,73.6,29.93,SSE,161,10.0,15.0,70,0.00,CLR,SKC,0.00,WeatherDisplay:10.37,2013-06-20 16:43:00,
2013-06-20 11:48:00,84.5,74.0,29.93,South,169,5.0,16.0,71,0.00,CLR,SKC,0.00,WeatherDisplay:10.37,2013-06-20 16:48:00,
2013-06-20 11:58:00,85.2,73.9,29.93,South,191,8.0,15.0,69,0.00,CLR,SKC,0.00,WeatherDisplay:10.37,2013-06-20 16:58:00,
2013-06-20 12:03:00,85.2,73.5,29.93,South,184,9.0,18.0,68,0.00,CLR,SKC,0.00,WeatherDisplay:10.37,2013-06-20 17:03:00,
2013-06-20 12:08:00,85.6,74.7,29.93,South,177,5.0,20.0,70,0.00,CLR,SKC,0.00,WeatherDisplay:10.37,2013-06-20 17:08:00,
2013-06-20 12:13:00,86.0,74.2,29.93,South,173,7.0,20.0,68,0.00,CLR,SKC,0.00,WeatherDisplay:10.37,2013-06-20 17:13:00,
2013-06-20 12:18:00,86.3,74.5,29.93,SSW,195,5.0,12.0,68,0.00,CLR,SKC,0.00,WeatherDisplay:10.37,2013-06-20 17:18:00,
2013-06-20 12:23:00,86.4,73.7,29.93,South,191,9.0,22.0,66,0.00,CLR,SKC,0.00,WeatherDisplay:10.37,2013-06-20 17:23:00,
2013-06-20 12:28:00,86.2,73.5,29.93,SSW,198,13.0,20.0,66,0.00,CLR,SKC,0.00,WeatherDisplay:10.37,2013-06-20 17:28:00,
2013-06-20 12:33:00,86.3,74.1,29.93,SSW,197,8.0,16.0,67,0.00,CLR,SKC,0.00,WeatherDisplay:10.37,2013-06-20 17:33:00,
2013-06-20 12:38:00,86.3,73.6,29.93,South,183,12.0,22.0,66,0.00,CLR,SKC,0.00,WeatherDisplay:10.37,2013-06-20 17:38:00,
2013-06-20 12:43:00,86.4,74.1,29.93,South,183,7.0,21.0,67,0.00,CLR,SKC,0.00,WeatherDisplay:10.37,2013-06-20 17:43:00,
2013-06-20 12:48:00,86.4,73.7,29.92,South,181,7.0,18.0,66,0.00,CLR,SKC,0.00,WeatherDisplay:10.37,2013-06-20 17:48:00,
2013-06-20 12:53:00,86.8,74.1,29.92,SSW,192,7.0,20.0,66,0.00,CLR,SKC,0.00,WeatherDisplay:10.37,2013-06-20 17:53:00,
2013-06-20 12:58:00,87.2,74.4,29.92,South,181,9.0,20.0,66,0.00,CLR,SKC,0.00,WeatherDisplay:10.37,2013-06-20 17:58:00,
2013-06-20 13:08:00,87.0,74.2,29.92,SSW,194,17.0,21.0,66,0.00,CLR,SKC,0.00,WeatherDisplay:10.37,2013-06-20 18:08:00,
2013-06-20 13:13:00,86.4,73.7,29.92,South,175,12.0,21.0,66,0.00,CLR,SKC,0.00,WeatherDisplay:10.37,2013-06-20 18:13:00,
2013-06-20 13:23:00,86.3,74.1,29.91,SSW,201,9.0,24.0,67,0.00,CLR,SKC,0.00,WeatherDisplay:10.37,2013-06-20 18:23:00,
2013-06-20 13:28:00,86.2,74.4,29.91,SSW,203,10.0,20.0,68,0.00,CLR,SKC,0.00,WeatherDisplay:10.37,2013-06-20 18:28:00,
2013-06-20 13:33:00,86.1,74.8,29.91,South,188,6.0,16.0,69,0.00,CLR,SKC,0.00,WeatherDisplay:10.37,2013-06-20 18:33:00,
2013-06-20 13:38:00,86.3,74.9,29.90,SSE,154,6.0,16.0,69,0.00,CLR,SKC,0.00,WeatherDisplay:10.37,2013-06-20 18:38:00,
2013-06-20 13:43:00,86.6,74.4,29.90,South,178,12.0,21.0,67,0.00,CLR,SKC,0.00,WeatherDisplay:10.37,2013-06-20 18:43:00,
2013-06-20 13:48:00,86.9,74.7,29.90,SSE,160,13.0,29.0,67,0.00,CLR,SKC,0.00,WeatherDisplay:10.37,2013-06-20 18:48:00,
2013-06-20 13:53:00,87.5,75.2,29.89,SSE,156,9.0,20.0,67,0.00,CLR,SKC,0.00,WeatherDisplay:10.37,2013-06-20 18:53:00,
2013-06-20 14:03:00,87.4,74.6,29.89,South,178,14.0,22.0,66,0.00,CLR,SKC,0.00,WeatherDisplay:10.37,2013-06-20 19:03:00,
2013-06-20 14:08:00,87.2,74.0,29.89,South,169,13.0,20.0,65,0.00,CLR,SKC,0.00,WeatherDisplay:10.37,2013-06-20 19:08:00,
2013-06-20 14:18:00,87.7,74.4,29.89,SSW,195,10.0,20.0,65,0.00,CLR,SKC,0.00,WeatherDisplay:10.37,2013-06-20 19:18:00,
2013-06-20 14:23:00,88.0,75.2,29.89,South,174,9.0,21.0,66,0.00,CLR,SKC,0.00,WeatherDisplay:10.37,2013-06-20 19:23:00,
2013-06-20 14:28:00,87.8,75.0,29.89,SSE,165,8.0,20.0,66,0.00,CLR,SKC,0.00,WeatherDisplay:10.37,2013-06-20 19:28:00,
2013-06-20 14:33:00,88.2,74.9,29.89,SSE,159,10.0,18.0,65,0.00,CLR,SKC,0.00,WeatherDisplay:10.37,2013-06-20 19:33:00,
2013-06-20 14:38:00,88.5,75.2,29.89,South,169,8.0,18.0,65,0.00,CLR,SKC,0.00,WeatherDisplay:10.37,2013-06-20 19:38:00,
2013-06-20 14:43:00,88.5,75.2,29.89,SSE,165,7.0,26.0,65,0.00,CLR,SKC,0.00,WeatherDisplay:10.37,2013-06-20 19:43:00,
2013-06-20 14:48:00,88.5,75.3,29.89,South,176,10.0,24.0,65,0.00,CLR,SKC,0.00,WeatherDisplay:10.37,2013-06-20 19:48:00,
2013-06-20 14:58:00,88.7,74.9,29.88,South,174,13.0,29.0,64,0.00,CLR,SKC,0.00,WeatherDisplay:10.37,2013-06-20 19:58:00,
2013-06-20 15:03:00,89.0,75.2,29.88,South,174,5.0,16.0,64,0.00,CLR,SKC,0.00,WeatherDisplay:10.37,2013-06-20 20:03:00,
2013-06-20 15:08:00,89.3,75.5,29.87,SW,218,6.0,20.0,64,0.00,CLR,SKC,0.00,WeatherDisplay:10.37,2013-06-20 20:08:00,
2013-06-20 15:18:00,89.7,75.9,29.87,South,182,7.0,16.0,64,0.00,CLR,SKC,0.00,WeatherDisplay:10.37,2013-06-20 20:18:00,
2013-06-20 15:23:00,89.8,74.5,29.87,South,170,12.0,21.0,61,0.00,CLR,SKC,0.00,WeatherDisplay:10.37,2013-06-20 20:23:00,
2013-06-20 15:28:00,90.0,75.7,29.87,SSE,155,6.0,17.0,63,0.00,CLR,SKC,0.00,WeatherDisplay:10.37,2013-06-20 20:28:00,
2013-06-20 15:38:00,89.7,74.4,29.87,SSE,160,16.0,26.0,61,0.00,CLR,SKC,0.00,WeatherDisplay:10.37,2013-06-20 20:38:00,
2013-06-20 15:48:00,89.5,75.3,29.87,South,178,12.0,24.0,63,0.00,CLR,SKC,0.00,WeatherDisplay:10.37,2013-06-20 20:48:00,
2013-06-20 15:53:00,89.8,76.0,29.86,South,183,12.0,21.0,64,0.00,CLR,SKC,0.00,WeatherDisplay:10.37,2013-06-20 20:53:00,
2013-06-20 15:58:00,89.9,75.6,29.86,South,181,8.0,26.0,63,0.00,CLR,SKC,0.00,WeatherDisplay:10.37,2013-06-20 20:58:00,
2013-06-20 16:08:00,89.7,74.5,29.86,South,180,9.0,26.0,61,0.00,CLR,SKC,0.00,WeatherDisplay:10.37,2013-06-20 21:08:00,
2013-06-20 16:13:00,89.8,75.1,29.86,South,183,8.0,26.0,62,0.00,CLR,SKC,0.00,WeatherDisplay:10.37,2013-06-20 21:13:00,
2013-06-20 16:18:00,90.0,74.8,29.86,SSW,195,10.0,21.0,61,0.00,CLR,SKC,0.00,WeatherDisplay:10.37,2013-06-20 21:18:00,
2013-06-20 16:28:00,90.1,74.8,29.86,South,183,9.0,22.0,61,0.00,CLR,SKC,0.00,WeatherDisplay:10.37,2013-06-20 21:28:00,
2013-06-20 16:38:00,90.1,74.8,29.86,South,172,16.0,30.0,61,0.00,CLR,SKC,0.00,WeatherDisplay:10.37,2013-06-20 21:38:00,
2013-06-20 16:43:00,90.0,75.7,29.86,SSW,195,7.0,24.0,63,0.00,CLR,SKC,0.00,WeatherDisplay:10.37,2013-06-20 21:43:00,
2013-06-20 16:48:00,90.0,75.7,29.85,South,169,13.0,20.0,63,0.00,CLR,SKC,0.00,WeatherDisplay:10.37,2013-06-20 21:48:00,
2013-06-20 16:58:00,90.1,75.8,29.85,SE,144,10.0,15.0,63,0.00,CLR,SKC,0.00,WeatherDisplay:10.37,2013-06-20 21:58:00,
2013-06-20 17:03:00,90.1,75.3,29.85,South,178,10.0,18.0,62,0.00,CLR,SKC,0.00,WeatherDisplay:10.37,2013-06-20 22:03:00,
2013-06-20 17:13:00,89.9,75.2,29.85,South,169,10.0,29.0,62,0.00,CLR,SKC,0.00,WeatherDisplay:10.37,2013-06-20 22:13:00,
2013-06-20 17:23:00,89.5,75.2,29.85,SSE,166,13.0,32.0,63,0.00,CLR,SKC,0.00,WeatherDisplay:10.37,2013-06-20 22:23:00,
2013-06-20 17:28:00,89.4,75.2,29.84,SSE,166,13.0,21.0,63,0.00,CLR,SKC,0.00,WeatherDisplay:10.37,2013-06-20 22:28:00,
2013-06-20 17:33:00,89.3,75.1,29.84,South,183,12.0,21.0,63,0.00,CLR,SKC,0.00,WeatherDisplay:10.37,2013-06-20 22:33:00,
2013-06-20 17:38:00,89.3,75.1,29.84,South,169,13.0,24.0,63,0.00,CLR,SKC,0.00,WeatherDisplay:10.37,2013-06-20 22:38:00,
2013-06-20 17:43:00,89.2,75.4,29.84,South,171,9.0,24.0,64,0.00,CLR,SKC,0.00,WeatherDisplay:10.37,2013-06-20 22:43:00,
2013-06-20 17:48:00,89.3,75.5,29.84,South,181,7.0,18.0,64,0.00,CLR,SKC,0.00,WeatherDisplay:10.37,2013-06-20 22:48:00,
2013-06-20 17:53:00,89.0,74.8,29.84,SSE,163,13.0,24.0,63,0.00,CLR,SKC,0.00,WeatherDisplay:10.37,2013-06-20 22:53:00,
2013-06-20 18:03:00,88.6,74.9,29.84,South,185,9.0,18.0,64,0.00,CLR,SKC,0.00,WeatherDisplay:10.37,2013-06-20 23:03:00,
2013-06-20 18:08:00,88.4,75.2,29.84,South,187,12.0,22.0,65,0.00,CLR,SKC,0.00,WeatherDisplay:10.37,2013-06-20 23:08:00,
2013-06-20 18:13:00,88.3,75.5,29.84,South,184,10.0,21.0,66,0.00,CLR,SKC,0.00,WeatherDisplay:10.37,2013-06-20 23:13:00,
2013-06-20 18:18:00,88.3,75.1,29.84,South,185,12.0,16.0,65,0.00,CLR,SKC,0.00,WeatherDisplay:10.37,2013-06-20 23:18:00,
2013-06-20 18:28:00,88.2,75.4,29.84,South,183,7.0,13.0,66,0.00,CLR,SKC,0.00,WeatherDisplay:10.37,2013-06-20 23:28:00,
2013-06-20 18:38:00,88.1,75.8,29.84,South,176,6.0,15.0,67,0.00,CLR,SKC,0.00,WeatherDisplay:10.37,2013-06-20 23:38:00,
2013-06-20 18:43:00,88.1,75.8,29.84,South,170,7.0,16.0,67,0.00,CLR,SKC,0.00,WeatherDisplay:10.37,2013-06-20 23:43:00,
2013-06-20 18:48:00,87.9,75.6,29.84,South,180,7.0,18.0,67,0.00,CLR,SKC,0.00,WeatherDisplay:10.37,2013-06-20 23:48:00,
2013-06-20 18:58:00,87.7,75.4,29.84,SSW,202,5.0,21.0,67,0.00,CLR,SKC,0.00,WeatherDisplay:10.37,2013-06-20 23:58:00,
2013-06-20 19:03:00,87.7,75.8,29.84,SSE,167,6.0,13.0,68,0.00,CLR,SKC,0.00,WeatherDisplay:10.37,2013-06-21 00:03:00,
2013-06-20 19:08:00,87.4,75.6,29.84,South,183,7.0,15.0,68,0.00,CLR,SKC,0.00,WeatherDisplay:10.37,2013-06-21 00:08:00,
2013-06-20 19:18:00,87.2,75.4,29.84,SE,145,6.0,10.0,68,0.00,CLR,SKC,0.00,WeatherDisplay:10.37,2013-06-21 00:18:00,
2013-06-20 19:28:00,86.8,75.0,29.84,SSE,161,8.0,20.0,68,0.00,CLR,SKC,0.00,WeatherDisplay:10.37,2013-06-21 00:28:00,
2013-06-20 19:38:00,86.5,75.1,29.84,South,180,5.0,12.0,69,0.00,CLR,SKC,0.00,WeatherDisplay:10.37,2013-06-21 00:38:00,
2013-06-20 19:43:00,86.3,75.0,29.84,South,169,6.0,13.0,69,0.00,CLR,SKC,0.00,WeatherDisplay:10.37,2013-06-21 00:43:00,
2013-06-20 19:48:00,86.2,74.8,29.84,SSE,164,6.0,16.0,69,0.00,CLR,SKC,0.00,WeatherDisplay:10.37,2013-06-21 00:48:00,
2013-06-20 19:53:00,86.0,75.1,29.84,SSE,160,3.0,13.0,70,0.00,CLR,SKC,0.00,WeatherDisplay:10.37,2013-06-21 00:53:00,
2013-06-20 20:03:00,85.7,74.8,29.84,SSE,164,10.0,19.0,70,0.00,CLR,SKC,0.00,WeatherDisplay:10.37,2013-06-21 01:03:00,
2013-06-20 20:08:00,85.5,74.6,29.84,South,171,6.0,15.0,70,0.00,CLR,SKC,0.00,WeatherDisplay:10.37,2013-06-21 01:08:00,
2013-06-20 20:13:00,85.3,74.9,29.84,SSE,163,7.0,12.0,71,0.00,CLR,SKC,0.00,WeatherDisplay:10.37,2013-06-21 01:13:00,
2013-06-20 20:18:00,85.2,74.3,29.85,SSE,154,9.0,16.0,70,0.00,CLR,SKC,0.00,WeatherDisplay:10.37,2013-06-21 01:18:00,
2013-06-20 20:23:00,85.1,74.6,29.85,SSE,168,7.0,15.0,71,0.00,CLR,SKC,0.00,WeatherDisplay:10.37,2013-06-21 01:23:00,
2013-06-20 20:28:00,84.9,74.5,29.85,South,180,5.0,15.0,71,0.00,CLR,SKC,0.00,WeatherDisplay:10.37,2013-06-21 01:28:00,
2013-06-20 20:33:00,84.8,74.4,29.85,South,187,7.0,18.0,71,0.00,CLR,SKC,0.00,WeatherDisplay:10.37,2013-06-21 01:33:00,
2013-06-20 20:38:00,84.6,74.5,29.85,South,182,7.0,13.0,72,0.00,CLR,SKC,0.00,WeatherDisplay:10.37,2013-06-21 01:38:00,
2013-06-20 20:43:00,84.4,74.4,29.86,South,171,3.0,12.0,72,0.00,CLR,SKC,0.00,WeatherDisplay:10.37,2013-06-21 01:43:00,
2013-06-20 20:48:00,84.3,74.3,29.86,SSE,155,5.0,13.0,72,0.00,CLR,SKC,0.00,WeatherDisplay:10.37,2013-06-21 01:48:00,
2013-06-20 20:58:00,83.9,73.9,29.86,SE,143,2.0,7.0,72,0.00,CLR,SKC,0.00,WeatherDisplay:10.37,2013-06-21 01:58:00,
2013-06-20 21:03:00,83.7,74.1,29.87,SSE,161,6.0,12.0,73,0.00,CLR,SKC,0.00,WeatherDisplay:10.37,2013-06-21 02:03:00,
2013-06-20 21:08:00,83.6,74.0,29.87,SSE,149,3.0,10.0,73,0.00,CLR,SKC,0.00,WeatherDisplay:10.37,2013-06-21 02:08:00,
2013-06-20 21:13:00,83.4,73.9,29.87,SSE,151,2.0,8.0,73,0.00,CLR,SKC,0.00,WeatherDisplay:10.37,2013-06-21 02:13:00,
2013-06-20 21:18:00,83.3,73.8,29.88,SE,138,5.0,13.0,73,0.00,CLR,SKC,0.00,WeatherDisplay:10.37,2013-06-21 02:18:00,
2013-06-20 21:23:00,83.2,74.1,29.88,SSE,157,2.0,10.0,74,0.00,CLR,SKC,0.00,WeatherDisplay:10.37,2013-06-21 02:23:00,
2013-06-20 21:28:00,83.1,74.0,29.88,SSE,158,2.0,12.0,74,0.00,CLR,SKC,0.00,WeatherDisplay:10.37,2013-06-21 02:28:00,
2013-06-20 21:33:00,82.9,73.8,29.87,SE,144,2.0,9.0,74,0.00,CLR,SKC,0.00,WeatherDisplay:10.37,2013-06-21 02:33:00,
2013-06-20 21:38:00,82.8,73.7,29.88,SE,126,3.0,7.0,74,0.00,CLR,SKC,0.00,WeatherDisplay:10.37,2013-06-21 02:38:00,
2013-06-20 21:43:00,82.6,73.9,29.88,SE,136,0.0,5.0,75,0.00,CLR,SKC,0.00,WeatherDisplay:10.37,2013-06-21 02:43:00,
2013-06-20 21:48:00,82.4,74.1,29.88,SSE,155,3.0,8.0,76,0.00,CLR,SKC,0.00,WeatherDisplay:10.37,2013-06-21 02:48:00,
2013-06-20 21:53:00,82.2,74.3,29.88,SSE,155,3.0,10.0,77,0.00,CLR,SKC,0.00,WeatherDisplay:10.37,2013-06-21 02:53:00,
2013-06-20 21:58:00,82.0,74.5,29.89,SSE,162,3.0,10.0,78,0.00,CLR,SKC,0.00,WeatherDisplay:10.37,2013-06-21 02:58:00,
2013-06-20 22:03:00,81.8,74.7,29.89,SSE,158,3.0,10.0,79,0.00,CLR,SKC,0.00,WeatherDisplay:10.37,2013-06-21 03:03:00,
2013-06-20 22:08:00,81.7,74.6,29.89,SSE,157,6.0,10.0,79,0.00,CLR,SKC,0.00,WeatherDisplay:10.37,2013-06-21 03:08:00,
2013-06-20 22:18:00,81.5,74.4,29.89,ESE,122,5.0,10.0,79,0.00,CLR,SKC,0.00,WeatherDisplay:10.37,2013-06-21 03:18:00,
2013-06-20 22:23:00,81.4,74.7,29.89,SSE,150,3.0,10.0,80,0.00,CLR,SKC,0.00,WeatherDisplay:10.37,2013-06-21 03:23:00,
2013-06-20 22:28:00,81.3,74.6,29.89,SSE,165,3.0,10.0,80,0.00,CLR,SKC,0.00,WeatherDisplay:10.37,2013-06-21 03:28:00,
2013-06-20 22:38:00,81.1,74.4,29.89,SSE,155,6.0,10.0,80,0.00,CLR,SKC,0.00,WeatherDisplay:10.37,2013-06-21 03:38:00,
2013-06-20 22:43:00,81.0,74.3,29.89,SSE,148,7.0,13.0,80,0.00,CLR,SKC,0.00,WeatherDisplay:10.37,2013-06-21 03:43:00,
2013-06-20 22:48:00,81.0,74.3,29.89,SSE,155,3.0,13.0,80,0.00,CLR,SKC,0.00,WeatherDisplay:10.37,2013-06-21 03:48:00,
2013-06-20 22:53:00,80.9,74.2,29.90,South,182,7.0,13.0,80,0.00,CLR,SKC,0.00,WeatherDisplay:10.37,2013-06-21 03:53:00,
2013-06-20 22:58:00,80.9,74.2,29.90,South,182,3.0,15.0,80,0.00,CLR,SKC,0.00,WeatherDisplay:10.37,2013-06-21 03:58:00,
2013-06-20 23:03:00,80.9,74.2,29.90,South,182,7.0,20.0,80,0.00,CLR,SKC,0.00,WeatherDisplay:10.37,2013-06-21 04:03:00,
2013-06-20 23:08:00,80.8,74.1,29.90,SSE,168,7.0,16.0,80,0.00,CLR,SKC,0.00,WeatherDisplay:10.37,2013-06-21 04:08:00,
2013-06-20 23:13:00,80.7,74.0,29.90,SSE,168,6.0,16.0,80,0.00,CLR,SKC,0.00,WeatherDisplay:10.37,2013-06-21 04:13:00,
2013-06-20 23:18:00,80.6,74.2,29.91,SSE,162,7.0,13.0,81,0.00,CLR,SKC,0.00,WeatherDisplay:10.37,2013-06-21 04:18:00,
2013-06-20 23:23:00,80.5,74.1,29.91,SSE,152,6.0,13.0,81,0.00,CLR,SKC,0.00,WeatherDisplay:10.37,2013-06-21 04:23:00,
2013-06-20 23:28:00,80.3,74.0,29.91,South,179,7.0,15.0,81,0.00,CLR,SKC,0.00,WeatherDisplay:10.37,2013-06-21 04:28:00,
2013-06-20 23:38:00,80.3,74.0,29.91,South,176,3.0,13.0,81,0.00,CLR,SKC,0.00,WeatherDisplay:10.37,2013-06-21 04:38:00,
2013-06-20 23:48:00,80.3,73.6,29.91,SSE,159,7.0,13.0,80,0.00,CLR,SKC,0.00,WeatherDisplay:10.37,2013-06-21 04:48:00,
2013-06-20 23:53:00,80.3,73.6,29.92,South,169,3.0,16.0,80,0.00,CLR,SKC,0.00,WeatherDisplay:10.37,2013-06-21 04:53:00,
2013-06-20 23:58:00,80.2,73.5,29.92,South,189,7.0,16.0,80,0.00,CLR,SKC,0.00,WeatherDisplay:10.37,2013-06-21 04:58:00,